Weather History for Scottsdale, AZ

Change the Weather History Date:

Saturday, February 9, 2013

  Actual Average Record
Temperature  
Mean Temperature 48 °F -  
Max Temperature 53 °F 64 °F 75 °F (2000)
Min Temperature 42 °F 44 °F 36 °F (2003)
Degree Days  
Heating Degree Days 18    
Moisture  
Dew Point 31 °F    
Average Humidity 54    
Maximum Humidity 79    
Minimum Humidity 32    
Precipitation  
Precipitation 0.00 in - - ()
Sea Level Pressure  
Sea Level Pressure 29.91 in    
Wind  
Wind Speed 6 mph (WSW)    
Max Wind Speed 16 mph    
Max Gust Speed 22 mph    
Visibility 10 miles    
Events Rain    
Averages and records for this station are not official NWS values.
T = Trace of Precipitation, MM = Missing Value Source: NWS Daily Summary

Daily Weather History Graph

Daily Weather History Graph

Search for Another Location

Airport:

Trip Planner

Search our weather history database for the weather conditions in past years. The results will help you decide how hot, cold, wet, or windy it might be!

Date:

Astronomy

Feb. 09, 2013 Rise Set
Actual Time 7:17 AM MST 6:06 PM MST
Civil Twilight 6:51 AM MST 6:32 PM MST
Nautical Twilight 6:22 AM MST 7:02 PM MST
Astronomical Twilight 5:53 AM MST 7:31 PM MST
Moon 6:32 AM MST (2/9) 5:51 PM MST (2/9)
Length of Visible Light 11h 41m
Length of Day
10h 49m
Waning Crescent, 0% of the Moon is Illuminated
Feb 9
Waning Crescent
Feb 10
New
Feb 17
First Quarter
Feb 25
Full
Mar 4
Last Quarter

Hourly Weather History & Observations

Time (MST) Temp. Windchill Dew Point Humidity Pressure Visibility Wind Dir Wind Speed Gust Speed Precip Events Conditions
12:53 AM 53.1 °F - 24.1 °F 32% 29.76 in 10.0 mi WSW 8.1 mph - N/A   Overcast
1:53 AM 50.0 °F - 30.0 °F 46% 29.79 in 10.0 mi West 9.2 mph 18.4 mph N/A   Overcast
2:53 AM 43.0 °F 36.8 °F 34.0 °F 71% 29.83 in 10.0 mi WNW 11.5 mph 21.9 mph 0.00 in Rain Light Rain
3:53 AM 42.1 °F 39.2 °F 36.0 °F 79% 29.81 in 10.0 mi NE 4.6 mph - 0.00 in   Overcast
4:53 AM 43.0 °F - 35.1 °F 74% 29.80 in 10.0 mi Calm Calm - N/A   Clear
5:53 AM 43.0 °F - 36.0 °F 76% 29.82 in 10.0 mi Calm Calm - N/A   Clear
6:53 AM 43.0 °F - 36.0 °F 76% 29.83 in 10.0 mi Calm Calm - N/A   Mostly Cloudy
7:53 AM 43.0 °F - 36.0 °F 76% 29.86 in 10.0 mi Calm Calm - N/A   Overcast
8:53 AM 45.0 °F 43.5 °F 36.0 °F 71% 29.89 in 10.0 mi South 3.5 mph - N/A   Partly Cloudy
9:43 AM 46.4 °F 41.9 °F 33.8 °F 62% 29.93 in 10.0 mi WSW 9.2 mph - N/A   Mostly Cloudy
9:53 AM 46.9 °F - 33.1 °F 59% 29.91 in 10.0 mi Variable 6.9 mph - N/A   Scattered Clouds
10:53 AM 48.0 °F - 30.0 °F 50% 29.93 in 10.0 mi West 8.1 mph - N/A   Clear
11:53 AM 48.9 °F - 28.9 °F 46% 29.94 in 10.0 mi SW 6.9 mph - N/A   Mostly Cloudy
12:53 PM 51.1 °F - 27.0 °F 39% 29.93 in 10.0 mi WSW 16.1 mph 21.9 mph N/A   Mostly Cloudy
1:53 PM 51.1 °F - 28.0 °F 41% 29.93 in 10.0 mi WSW 8.1 mph - N/A   Overcast
2:53 PM 52.0 °F - 27.0 °F 38% 29.93 in 10.0 mi West 10.4 mph 19.6 mph N/A   Overcast
3:53 PM 53.1 °F - 26.1 °F 35% 29.93 in 10.0 mi WSW 6.9 mph 19.6 mph N/A   Overcast
4:53 PM 53.1 °F - 26.1 °F 35% 29.94 in 10.0 mi West 6.9 mph - N/A   Overcast
5:53 PM 53.1 °F - 26.1 °F 35% 29.95 in 10.0 mi SW 5.8 mph - N/A   Overcast
6:53 PM 50.0 °F - 30.0 °F 46% 29.97 in 10.0 mi NNE 6.9 mph - N/A   Overcast
7:53 PM 50.0 °F - 30.0 °F 46% 29.98 in 10.0 mi Calm Calm - N/A   Overcast
8:53 PM 48.9 °F - 30.9 °F 50% 29.99 in 10.0 mi Calm Calm - N/A   Overcast
9:53 PM 48.0 °F - 32.0 °F 54% 30.00 in 10.0 mi Calm Calm - N/A   Overcast
10:53 PM 46.9 °F - 33.1 °F 59% 30.01 in 10.0 mi Calm Calm - N/A   Partly Cloudy
11:53 PM 45.0 °F - 34.0 °F 65% 30.02 in 10.0 mi Calm Calm - N/A   Overcast